[[{"header":{"parameterUnit":"m.s-1","parameterCategory":1,"la1":30.2991,"la2":30.254,"lo1":-89.0895,"lo2":-89.0444,"dy":0.0017,"dx":0.0017,"nx":28,"ny":28,"refTime":"2024-06-06T09:00:00:Z","depth":0,"parameterNumber":2,"parameterNumberName":"U-component_of_WINDS"},"data":[0,0,0,0,0,0,0,0,0,0,0,0,0,0,0,0,0,0,0,0,0,0,0,0,0,0,0,0,0,0,0,0,0,0,0,0,0,0,0,0,0,0,0,0,0,0,0,0,0,0,0,0,0,0,0,0,0,0,-0.2034,-0.2034,0,-0.2002,-0.2001,-0.2001,-0.1979,-0.1979,-0.1978,-0.1978,-0.1945,-0.1945,-0.1944,0,0,0,0,0,0,0,0,0,0,0,0,0,-0.2077,-0.2076,-0.2034,-0.2034,-0.2033,-0.2002,-0.2001,-0.2001,-0.1979,-0.1979,-0.1978,-0.1978,-0.1946,-0.1945,-0.1944,0,0,0,0,0,0,0,0,0,0,0,0,0,-0.2053,-0.2076,-0.2034,-0.2018,-0.2017,-0.2002,-0.2001,-0.2001,-0.1979,-0.1979,-0.1978,-0.1978,-0.1946,-0.1945,-0.1944,-0.1942,0,0,-0.194,-0.194,0,0,0,0,0,0,0,0,-0.2054,-0.2051,-0.2021,-0.202,-0.2018,-0.1994,-0.2004,-0.1981,-0.1979,-0.1993,-0.1978,-0.1978,-0.1962,-0.1959,-0.1954,-0.1941,-0.1939,-0.194,-0.194,-0.1939,-0.1939,0,0,0,0,0,0,0,-0.2056,-0.2053,-0.2021,-0.2021,-0.2019,-0.2013,-0.2009,-0.2,-0.1979,-0.1992,-0.199,-0.1987,-0.1961,-0.1955,-0.1953,-0.1939,-0.194,-0.1939,-0.1939,-0.1938,-0.1923,-0.1923,0,0,0,0,0,0,-0.206,-0.2054,-0.2022,-0.202,-0.2036,-0.2013,-0.2008,-0.2002,-0.1979,-0.1976,-0.1987,-0.1986,-0.1957,-0.1954,-0.1952,-0.1949,-0.1939,-0.1938,-0.1938,-0.1923,-0.1923,-0.1923,0,0,0,0,0,0,-0.2061,-0.2058,-0.2024,-0.2037,-0.2032,-0.2012,-0.2005,-0.2001,-0.1996,-0.1976,-0.1972,-0.1985,-0.1957,-0.1953,-0.1945,-0.1947,-0.1938,-0.1937,-0.1923,-0.1923,-0.1923,-0.1943,0,0,0,0,0,0,-0.2063,-0.2058,-0.2057,-0.2037,-0.2032,-0.2017,-0.2005,-0.2001,-0.1994,-0.1992,-0.1973,-0.1969,-0.1956,-0.1947,-0.1944,-0.1946,-0.1936,-0.1922,-0.1923,-0.1923,-0.1942,-0.1944,-0.1946,0,0,0,0,0,-0.2064,-0.2064,-0.2057,-0.2053,-0.203,-0.2018,-0.2014,-0.1999,-0.1994,-0.1993,-0.198,-0.197,-0.1947,-0.1946,-0.1943,-0.1944,-0.1922,-0.1923,-0.1923,-0.1941,-0.1944,-0.1946,0,0,0,0,0,0,-0.2085,-0.2061,-0.2053,-0.2046,-0.2034,-0.2014,-0.2012,-0.2002,-0.1991,-0.199,-0.1972,-0.1968,-0.1962,-0.1952,-0.1951,-0.1942,-0.1934,-0.1933,-0.1949,-0.1951,-0.1952,-0.1955,-0.1935,0,0,0,0,0,-0.2089,-0.208,-0.206,-0.2056,-0.205,-0.2032,-0.2026,-0.2016,-0.2002,-0.1997,-0.1984,-0.1971,-0.1961,-0.1955,-0.1945,-0.194,-0.1936,-0.194,-0.1942,-0.1944,-0.1944,-0.1941,-0.1943,-0.1925,-0.1925,-0.1925,0,0,-0.2096,-0.2082,-0.2078,-0.206,-0.2049,-0.2041,-0.2028,-0.202,-0.2014,-0.1996,-0.1988,-0.1977,-0.1962,-0.1956,-0.1952,-0.1948,-0.1948,-0.1944,-0.1946,-0.1945,-0.1942,-0.1944,-0.1945,-0.1926,-0.1926,-0.1926,0,0,-0.2107,-0.2095,-0.2091,-0.208,-0.2064,-0.2052,-0.2051,-0.2032,-0.2025,-0.2016,-0.2002,-0.1995,-0.1978,-0.1968,-0.1961,-0.1968,-0.1958,-0.1965,-0.1975,-0.1973,-0.1974,-0.1975,-0.1978,-0.198,-0.1965,-0.1965,-0.1965,0,-0.2119,-0.2106,-0.209,-0.2083,-0.2075,-0.2058,-0.2054,-0.2045,-0.2026,-0.2022,-0.2017,-0.1996,-0.1984,-0.1976,-0.1977,-0.1972,-0.1971,-0.1967,-0.1975,-0.1976,-0.1977,-0.198,-0.1981,-0.1966,-0.1966,-0.1966,-0.1966,0,-0.2122,-0.2113,-0.2112,-0.2095,-0.2087,-0.2081,-0.2064,-0.2059,-0.2049,-0.2038,-0.2029,-0.2015,-0.2002,-0.1999,-0.1989,-0.1989,-0.1987,-0.1979,-0.197,-0.198,-0.1982,-0.1983,-0.1968,-0.1967,-0.1967,-0.1967,0,0,-0.2145,-0.2118,-0.2118,-0.211,-0.2092,-0.2085,-0.2079,-0.2066,-0.2062,-0.2049,-0.2044,-0.2031,-0.2023,-0.2015,-0.2004,-0.2002,-0.2009,-0.1994,-0.1994,-0.1998,-0.2009,-0.2016,-0.2018,-0.2002,-0.2002,-0.2003,-0.2011,0,-0.2153,-0.2141,-0.2126,-0.2119,-0.2112,-0.2095,-0.209,-0.2078,-0.2067,-0.206,-0.2048,-0.2039,-0.2029,-0.2024,-0.2021,-0.2009,-0.2011,-0.2008,-0.1998,-0.1998,-0.2003,-0.2019,-0.2026,-0.2034,-0.2012,-0.2012,-0.2012,0,-0.2161,-0.2149,-0.2142,-0.2124,-0.212,-0.2116,-0.2104,-0.2096,-0.2082,-0.2075,-0.2066,-0.2054,-0.2047,-0.2039,-0.2029,-0.2027,-0.2022,-0.2015,-0.2015,-0.2015,-0.2006,-0.2019,-0.2037,-0.2038,-0.2013,-0.2013,-0.2013,0,-0.2179,-0.2162,-0.2156,-0.2149,-0.2128,-0.2126,-0.2117,-0.2103,-0.2096,-0.2085,-0.2081,-0.2069,-0.2063,-0.2054,-0.204,-0.2035,-0.2032,-0.2022,-0.2026,-0.2026,-0.2027,-0.2027,-0.2045,-0.2022,-0.2022,-0.2022,-0.2022,0,-0.219,-0.2186,-0.2164,-0.216,-0.2155,-0.2138,-0.2135,-0.2124,-0.2112,-0.2106,-0.2091,-0.2086,-0.2066,-0.2059,-0.2047,-0.2042,-0.2039,-0.2033,-0.203,-0.2035,-0.2036,-0.2032,-0.2031,-0.2022,-0.2022,-0.2022,-0.2022,0,-0.221,-0.2195,-0.2187,-0.2168,-0.2163,-0.216,-0.2144,-0.214,-0.2128,-0.2121,-0.2118,-0.21,-0.2091,-0.2075,-0.2061,-0.2053,-0.205,-0.2045,-0.2055,-0.2053,-0.2058,-0.2058,-0.2074,-0.2076,-0.2052,-0.2052,-0.2052,0,-0.2219,-0.2216,-0.2196,-0.2191,-0.2183,-0.2175,-0.2168,-0.2151,-0.2145,-0.2129,-0.2127,-0.2116,-0.2107,-0.2093,-0.2079,-0.2068,-0.2063,-0.2069,-0.2061,-0.2066,-0.2064,-0.2065,-0.2065,-0.2071,-0.2072,-0.2072,-0.2072,0,-0.2236,-0.2228,-0.2219,-0.2208,-0.22,-0.219,-0.2179,-0.2176,-0.2157,-0.2151,-0.2141,-0.2134,-0.212,-0.211,-0.2097,-0.2088,-0.2077,-0.2075,-0.2075,-0.208,-0.2087,-0.2084,-0.2061,-0.2074,-0.2074,-0.2074,-0.2074,-0.2074,-0.2251,-0.2248,-0.2234,-0.2224,-0.2214,-0.2205,-0.22,-0.2188,-0.2179,-0.2167,-0.2157,-0.2148,-0.2135,-0.2117,-0.2108,-0.2101,-0.2096,-0.2097,-0.2097,-0.2098,-0.21,-0.2087,-0.2099,-0.2099,-0.2099,-0.2099,-0.2099,0,-0.2268,-0.2258,-0.225,-0.2235,-0.2228,-0.2218,-0.2206,-0.22,-0.2193,-0.2181,-0.2172,-0.2161,-0.2152,-0.2137,-0.2126,-0.2123,-0.2118,-0.2121,-0.2121,-0.212,-0.2104,-0.2106,-0.2125,-0.2125,-0.2125,-0.2125,-0.2125,-0.2125,-0.2276,-0.227,-0.2261,-0.2251,-0.2241,-0.2232,-0.2226,-0.2217,-0.2208,-0.2196,-0.2188,-0.2178,-0.2166,-0.2154,-0.2144,-0.214,-0.2137,-0.2142,-0.2137,-0.2123,-0.2121,-0.2118,-0.2119,-0.2141,-0.2141,-0.2152,-0.2152,-0.2153]},{"header":{"parameterUnit":"m.s-1","parameterCategory":1,"la1":30.2991,"la2":30.254,"lo1":-89.0895,"lo2":-89.0444,"dy":0.0017,"dx":0.0017,"nx":28,"ny":28,"refTime":"2024-06-06T09:00:00:Z","depth":0,"parameterNumber":3,"parameterNumberName":"V-component_of_WINDS"},"data":[0,0,0,0,0,0,0,0,0,0,0,0,0,0,0,0,0,0,0,0,0,0,0,0,0,0,0,0,0,0,0,0,0,0,0,0,0,0,0,0,0,0,0,0,0,0,0,0,0,0,0,0,0,0,0,0,0,0,0.765,0.765,0,0.7646,0.7646,0.7646,0.7637,0.7637,0.7637,0.7637,0.7631,0.7631,0.7631,0,0,0,0,0,0,0,0,0,0,0,0,0,0.7649,0.7649,0.765,0.765,0.765,0.7646,0.7646,0.7646,0.7637,0.7637,0.7637,0.7637,0.7631,0.7631,0.7631,0,0,0,0,0,0,0,0,0,0,0,0,0,0.7648,0.7649,0.765,0.7645,0.7645,0.7646,0.7646,0.7646,0.7637,0.7637,0.7637,0.7637,0.7631,0.7631,0.7631,0.7636,0,0,0.7631,0.7631,0,0,0,0,0,0,0,0,0.7648,0.7648,0.7646,0.7646,0.7645,0.7642,0.7643,0.7642,0.7638,0.764,0.7637,0.7637,0.7635,0.7635,0.7634,0.7636,0.7635,0.7631,0.7631,0.7631,0.7631,0,0,0,0,0,0,0,0.7648,0.7648,0.7648,0.7646,0.7646,0.7643,0.7642,0.7643,0.7639,0.764,0.7639,0.7639,0.7635,0.7634,0.7634,0.7635,0.7631,0.7631,0.7631,0.7631,0.7639,0.7639,0,0,0,0,0,0,0.7649,0.7648,0.7649,0.7648,0.7646,0.7643,0.7643,0.7643,0.7639,0.7638,0.7639,0.7639,0.7634,0.7634,0.7634,0.7638,0.7631,0.7631,0.7631,0.7639,0.7639,0.7639,0,0,0,0,0,0,0.7649,0.7649,0.7649,0.7648,0.7648,0.7643,0.7644,0.7643,0.7643,0.7638,0.7637,0.764,0.7634,0.7634,0.7635,0.7638,0.7631,0.7631,0.7639,0.7639,0.7639,0.7648,0,0,0,0,0,0,0.7649,0.7649,0.7652,0.7648,0.7648,0.7651,0.7644,0.7643,0.7643,0.7642,0.7639,0.7638,0.7634,0.7635,0.7635,0.7638,0.7631,0.7638,0.7639,0.7639,0.7648,0.7649,0.765,0,0,0,0,0,0.7649,0.7654,0.7652,0.7652,0.7651,0.7651,0.7651,0.7647,0.7643,0.7645,0.7642,0.7638,0.7638,0.7636,0.7635,0.7638,0.7638,0.7639,0.7639,0.7647,0.7648,0.765,0,0,0,0,0,0,0.7658,0.7654,0.7651,0.7655,0.7654,0.765,0.7652,0.7649,0.7648,0.7647,0.7641,0.764,0.7642,0.764,0.7638,0.7642,0.7637,0.7638,0.7643,0.7645,0.7646,0.7646,0.7631,0,0,0,0,0,0.7661,0.7662,0.7658,0.7662,0.7661,0.7657,0.7657,0.7654,0.7652,0.7651,0.7648,0.7645,0.7645,0.7644,0.7644,0.7647,0.7645,0.7649,0.765,0.765,0.7651,0.7652,0.7653,0.7641,0.7641,0.7641,0,0,0.7666,0.7664,0.7665,0.7664,0.7662,0.7663,0.7656,0.7658,0.7658,0.7651,0.7652,0.765,0.7646,0.7649,0.7649,0.7647,0.7654,0.7651,0.7652,0.7652,0.7652,0.7653,0.7654,0.7641,0.7641,0.7641,0,0,0.7676,0.7675,0.7678,0.7676,0.7673,0.767,0.7671,0.7667,0.7665,0.7666,0.7661,0.766,0.766,0.7657,0.7656,0.7664,0.7659,0.7663,0.7669,0.767,0.7671,0.7671,0.7673,0.7674,0.7664,0.7664,0.7664,0,0.7683,0.7684,0.768,0.7681,0.768,0.7674,0.7676,0.7674,0.7672,0.7671,0.7668,0.7666,0.7664,0.7665,0.7666,0.7666,0.7666,0.7664,0.7671,0.7672,0.7672,0.7674,0.7675,0.7664,0.7664,0.7664,0.7664,0,0.7692,0.7693,0.7696,0.7693,0.7693,0.7695,0.769,0.7689,0.7686,0.7682,0.7683,0.7679,0.7677,0.7677,0.7674,0.7677,0.7676,0.7672,0.7667,0.7674,0.7676,0.7676,0.7665,0.7665,0.7665,0.7665,0,0,0.7709,0.7703,0.7704,0.7703,0.7699,0.7699,0.77,0.7698,0.7697,0.7695,0.7695,0.7694,0.769,0.7689,0.7685,0.7685,0.769,0.7681,0.7681,0.7683,0.7693,0.7696,0.7697,0.7687,0.7687,0.7688,0.7693,0,0.7718,0.772,0.7716,0.7718,0.7719,0.7712,0.7712,0.7709,0.7706,0.7705,0.7701,0.77,0.7695,0.7694,0.7694,0.769,0.7692,0.7689,0.7687,0.7687,0.7688,0.7698,0.7702,0.7707,0.7694,0.7694,0.7694,0,0.773,0.7728,0.7731,0.7726,0.7726,0.7727,0.7724,0.7723,0.7719,0.7716,0.7714,0.7709,0.7709,0.7704,0.7703,0.7701,0.7699,0.7696,0.7697,0.7696,0.7691,0.7698,0.7709,0.771,0.7695,0.7695,0.7695,0,0.7741,0.774,0.7741,0.774,0.7734,0.7734,0.7732,0.7728,0.7726,0.7724,0.7722,0.7719,0.7718,0.7715,0.7709,0.7706,0.7708,0.7703,0.7706,0.7706,0.7707,0.7707,0.7718,0.7706,0.7706,0.7706,0.7706,0,0.7752,0.7754,0.7746,0.7747,0.7748,0.7742,0.7744,0.774,0.7736,0.7736,0.7729,0.7728,0.7721,0.7719,0.7714,0.7713,0.7712,0.771,0.7708,0.771,0.7711,0.771,0.7709,0.7706,0.7706,0.7706,0.7706,0,0.7766,0.776,0.7761,0.7755,0.7754,0.7755,0.775,0.775,0.7745,0.7744,0.7744,0.7737,0.7734,0.7728,0.7723,0.772,0.772,0.7718,0.7722,0.7721,0.7724,0.7724,0.7734,0.7735,0.7723,0.7723,0.7723,0,0.7773,0.7775,0.7768,0.7768,0.7765,0.7764,0.7763,0.7756,0.7755,0.7749,0.775,0.7747,0.7744,0.774,0.7734,0.773,0.7727,0.7731,0.7727,0.7728,0.7727,0.7727,0.7727,0.7732,0.7733,0.7733,0.7733,0,0.7787,0.7784,0.7782,0.7779,0.7778,0.7775,0.7772,0.7771,0.7764,0.7762,0.7759,0.7757,0.7752,0.7749,0.7744,0.774,0.7735,0.7734,0.7734,0.7737,0.7739,0.7737,0.7725,0.7734,0.7734,0.7734,0.7734,0.7734,0.7797,0.7798,0.7793,0.7791,0.7788,0.7785,0.7785,0.778,0.7778,0.7774,0.7769,0.7767,0.7761,0.7754,0.7751,0.7748,0.7745,0.7746,0.7746,0.7746,0.7747,0.7739,0.7747,0.7747,0.7747,0.7747,0.7747,0,0.781,0.7807,0.7805,0.7801,0.7799,0.7794,0.779,0.7789,0.7787,0.7782,0.7779,0.7775,0.7772,0.7765,0.776,0.7759,0.7757,0.7758,0.7759,0.7758,0.775,0.775,0.7761,0.7761,0.7761,0.7761,0.7761,0.7761,0.7817,0.7817,0.7814,0.7812,0.7808,0.7806,0.7804,0.78,0.7797,0.7793,0.779,0.7785,0.778,0.7774,0.777,0.7768,0.7767,0.7769,0.7767,0.776,0.7758,0.7757,0.7757,0.7769,0.7769,0.7774,0.7774,0.7775]}]]